Location: Eurasberg
(48.3353°N, 11.0839°E)
Time: 13:26:42
(UTC+00:00)

Timation 1 Rocket - Pass Details

Date: 26 April 2026
Orbit: 895 x 908 km, 70.0° (Epoch: 14 May)

Event Time Altitude Azimuth Distance (km) Brightness Sun altitude
Exits shadow 01:33:48 - 284° (WNW) 3,235 7.0 -20.8°
Reaches altitude 10° 01:36:40 10° 304° (WNW) 2,600 6.7 -20.5°
Maximum altitude 01:39:39 14° 334° (NNW) 2,332 6.8 -20.2°
Drops below altitude 10° 01:42:38 10° 4° (N) 2,604 7.5 -19.9°
Sets 01:46:37 0° 30° (NNE) 3,547 9.0 -19.5°
